Regional Weather Roundup
Issued by NWS

Home | Current Version | Previous Version | Text Only | Print | Product List | Glossary Off
Versions: 1 2 3 4 5 6 7 8 9 10 11 12 13 14 15 16 17 18 19 20 21 22 23 24 25 26 27 28 29 30 31 32 33 34 35 36 37 38 39 40 41 42 43 44 45 46 47 48 49 50

000
ASUS43 KMKX 091410
RWRWI

WISCONSIN REGIONAL WEATHER ROUNDUP
NATIONAL WEATHER SERVICE MILWAUKEE/SULLIVAN WI
800 AM CST TUE FEB 09 2016

NOTE: "FAIR" INDICATES FEW OR NO CLOUDS BELOW 12,000 FEET WITH NO
SIGNIFICANT WEATHER AND/OR OBSTRUCTIONS TO VISIBILITY.

WIZ001-002-006>008-014>016-023>028-091500-
NORTHWEST WISCONSIN

CITY           SKY/WX    TMP DP  RH WIND       PRES   REMARKS
SUPERIOR ARPT  CLOUDY     3  -4  71 NW12      30.11R WCI -13
ASHLAND        MOCLDY     7   1  76 NW9       30.00R WCI  -7
HAYWARD        CLOUDY     2  -4  76 VRB5      29.98R WCI  -8
SIREN          CLOUDY     2  -5  71 N10G16    30.06S WCI -13
CUMBERLAND     CLOUDY     1  -6  71 NW10G21   29.99S WCI -14
RICE LAKE      CLOUDY     2  -4  73 NW9       30.02R WCI -12
CHETEK         CLOUDY     2  -4  75 NW5       30.00R WCI  -7
LADYSMITH      CLOUDY     5  -1  77 NW10G17   29.95R WCI -10
EAU CLAIRE     PTCLDY     3  -5  69 NW12      30.00R WCI -13
MENOMONIE      PTCLDY     4  -4  69 NW14      30.03R WCI -14
NEW RICHMOND   PTCLDY     3  -5  70 NW17      30.06R WCI -17
OSCEOLA        CLEAR      3  -4  72 NW12      30.11R WCI -13
$$

WIZ003>005-009-010-017-018-091500-
NORTH CENTRAL WISCONSIN

CITY           SKY/WX    TMP DP  RH WIND       PRES   REMARKS
MANITOWISH WTR LGT SNOW   9   5  82 N8        29.82R WCI  -3
ARBOR VITAE    CLOUDY    11   6  78 N16       29.80S HAZE    WCI  -5
WOODRUFF       CLOUDY    11   6  78 N16       29.80S HAZE    WCI  -5
RHINELANDER    CLOUDY    10   2  69 N10G22    29.79R WCI  -4
EAGLE RIVER    LGT SNOW   9   2  73 N13G22    29.78R WCI  -6
LAND O LAKES   LGT SNOW  10   5  82 N12G18    29.79R WCI  -5
PHILLIPS       CLOUDY     7   1  79 NW10G18   29.85S WCI  -8
TOMAHAWK       LGT SNOW   9   4  82 NW9       29.82R WCI  -5
MEDFORD        LGT SNOW   5   1  81 NW15      29.83S WCI -13
MERRILL        LGT SNOW   9   5  81 NW8       29.83R WCI  -3
$$

WIZ029-030-035-036-043>047-091500-
CENTRAL WISCONSIN

CITY           SKY/WX    TMP DP  RH WIND       PRES   REMARKS
WAUSAU         LGT SNOW  11   5  77 NW12      29.81R WCI  -3
MOSINEE        LGT SNOW   9   5  85 NW12G18   29.83R WCI  -6
MARSHFIELD     LGT SNOW   6  -2  69 NW20      29.85R WCI -14
STEVENS POINT  LGT SNOW   7   2  80 NW6       29.85R WCI  -3
WAUPACA        CLOUDY    13   5  71 NW12G18   29.84S HAZE    WCI  -1
WAUTOMA        CLOUDY    10   3  73 NW12G20   29.87R WCI  -5
WISC RAPIDS    LGT SNOW   7   0  73 NW15G25   29.89R WCI -10
CAMP DOUGLAS   LGT SNOW   7   5  92 NW18G24   29.91R FOG     WCI -12
$$

WIZ011>013-019>022-031-037>040-048>050-091500-
NORTHEAST WISCONSIN

CITY           SKY/WX    TMP DP  RH WIND       PRES   REMARKS
ANTIGO         CLOUDY    10   4  78 N16       29.77R WCI  -8
SHAWANO        CLOUDY    14   8  76 W5        29.82R WCI   7
OCONTO         CLOUDY    13   5  68 NW9G17    29.81R WCI   1
STURGEON BAY   CLOUDY    14   3  62 NW18      29.78S WCI  -3
GREEN BAY      LGT SNOW  13   8  81 NW13      29.81R WCI  -2
MANITOWOC      FLURRIES  14   9  80 NW16G22   29.79R WCI  -2
APPLETON       LGT SNOW  10   5  79 NW14      29.79R WCI  -5
CLINTONVILLE   LGT SNOW  12   7  79 NW9       29.82S WCI   0
OSHKOSH        CLOUDY    11   4  73 NW15      29.81S WCI  -5
$$

WIZ032>034-041-042-053>061-091500-
SOUTHWEST WISCONSIN

CITY           SKY/WX    TMP DP  RH WIND       PRES   REMARKS
LA CROSSE      PTCLDY     7  -2  66 NW14      30.00R WCI -10
SPARTA         LGT SNOW   8   2  78 NW15      29.97R WCI -10
VIROQUA        PTCLDY     6   1  79 NW17      29.91R WCI -13
BOSCOBEL       LGT SNOW  10   2  69 NW12      29.96R WCI  -5
PRAIRIE DU CHI CLOUDY    10   0  64 NW12G18   29.98R WCI  -5
PLATTEVILLE    PTCLDY     9   4  78 NW15G22   29.90R WCI  -7
$$

WIZ056-057-062-063-064-067-068-091500-
SOUTH CENTRAL WISCONSIN

CITY           SKY/WX    TMP DP  RH WIND       PRES   REMARKS
REEDSBURG      CLOUDY     9   2  75 NW13      29.89R WCI  -7
BARABOO/DELLS  CLOUDY     8   2  77 NW14G21   29.87S HAZE    WCI  -8
LONE ROCK      FLURRIES  10   1  67 NW15      29.93R WCI  -7
MINERAL POINT  LGT SNOW  10   5  79 NW10G16   29.87R WCI  -3
MADISON        FLURRIES   9   2  73 NW10G24   29.86R WCI  -5
MIDDLETON      CLOUDY    11   5  75 NW16      29.87R WCI  -6
WATERTOWN      PTCLDY    11   5  77 NW14      29.83R WCI  -5
MONROE         LGT SNOW  12   5  73 NW13G22   29.84R WCI  -3
JANESVILLE     FLURRIES  12   7  79 NW15      29.85R WCI  -4
$$

WIZ051-052-058>065-066-070>072-091500-
SOUTHEAST WISCONSIN

CITY           SKY/WX    TMP DP  RH WIND       PRES   REMARKS
MILWAUKEE      PTCLDY    14   6  70 NW12      29.80R WCI   0
WAUKESHA       LGT SNOW  10   5  79 NW14      29.81R WCI  -5
MILWAUKEE/TIMM CLEAR     12   3  67 NW13G20   29.82R WCI  -3
RACINE         CLEAR     13   5  70 NW12      29.81R WCI  -1
BURLINGTON     CLEAR     11   5  78 NW15      29.82R WCI  -6
KENOSHA        CLOUDY    14   7  73 NW14G21   29.80R WCI  -1
FOND DU LAC    FLURRIES  11   5  77 NW16      29.82R WCI  -6
SHEBOYGAN      CLOUDY    13   6  74 NW13      29.79R WCI  -2
WEST BEND      MOCLDY    12   5  73 NW15      29.80R WCI  -4
JUNEAU         CLOUDY     9   4  77 NW14G22   29.83R WCI  -7
$$

LSZ147-162-091500-
LAKE SUPERIOR

STATION/POSITION TIME  TEMP    WIND        PRES    WAVE
                       AIR SEA DIR/SP/G            HT/PER
                 (UTC) (F)     (DEG/KT/KT) (MB)    (FT/S)
DEVILS ISLAND    1400    9     340/ 20/ 25 1018.1R
PORT WING        1340    9     340/ 15/ 21 1017.9R
SAXON HARBOR     1321   14                 1014.6R
$$

LMZ867-665-643>646-091500-
LAKE MICHIGAN

STATION/POSITION TIME  TEMP    WIND        PRES    WAVE
                       AIR SEA DIR/SP/G            HT/PER
                 (UTC) (F)     (DEG/KT/KT) (MB)    (FT/S)
CHAMBERS ISLAND  1300   15     300/ 17/ 24 1008.1R
ALGOMA LAKESHORE 1311          340/ 15/ 21   N/A
KEWAUNEE LAKESHO 1300   15     330/ 14/ 19 1007.1R
SHEBOYGAN LAKESH 1400   14     310/ 14/ 18 1010.1R
PORT WASHINGTON  1340   13     300/ 10/ 15 1010.2R
MILWAUKEE LAKESH 1310   14     310/ 13/ 16   N/A
KENOSHA   LAKESH 1400   14     310/ 12/ 20 1009.5R
$$

TC  - TEMPERATURE IN CELSIUS
VSB - VISIBILITY IN STATUTE MILES
WCI - WIND CHILL INDEX
HX  - HEAT INDEX




USA.gov is the U.S. government's official web portal to all federal, state and local government web resources and services.